Location: Leipzig
(51.3203°N, 12.3761°E)
Time: 00:17:36
(UTC+01:00)

ISS - Visible Passes

Search period start: 29 November 2021 00:00
Search period end: 09 December 2021 00:00
Orbit: 417 x 423 km, 51.6° (Epoch: 28 November)

Date Brightness Start Highest point End Pass type
(mag) Time Alt. Az. Time Alt. Az. Time Alt. Az.
29 Nov -3.7 17:05:36 10° W 17:09:00 89° S 17:11:56 14° E visible
29 Nov -2.6 18:42:28 10° W 18:44:54 44° W 18:44:54 44° W visible
30 Nov -3.8 17:55:17 10° W 17:58:42 86° N 17:59:38 45° E visible
30 Nov -0.4 19:32:10 10° W 19:32:37 13° W 19:32:37 13° W visible
01 Dec -3.8 17:08:03 10° W 17:11:29 83° N 17:14:23 14° E visible
01 Dec -2.4 18:44:56 10° W 18:47:22 40° WSW 18:47:22 40° WSW visible
02 Dec -3.6 17:57:42 10° W 18:01:06 71° SSW 18:02:11 39° ESE visible
02 Dec -0.3 19:34:51 10° W 19:35:10 12° W 19:35:10 12° W visible
03 Dec -3.7 17:10:28 10° W 17:13:53 85° S 17:17:04 11° ESE visible
03 Dec -2.0 18:47:26 10° W 18:50:04 30° SW 18:50:04 30° SW visible
04 Dec -2.6 18:00:06 10° W 18:03:20 42° SSW 18:05:04 22° SSE visible
05 Dec -3.1 17:12:49 10° W 17:16:09 55° SSW 17:19:28 10° ESE visible
05 Dec -1.1 18:50:21 10° WSW 18:52:27 15° SW 18:53:16 14° SSW visible
06 Dec -1.3 18:02:40 10° W 18:05:22 22° SW 18:08:02 10° SSE visible
07 Dec -1.8 17:15:12 10° W 17:18:13 30° SSW 17:21:14 10° SSE visible
08 Dec -0.2 18:06:39 10° SW 18:07:09 10° SW 18:07:39 10° SW visible
